Location: Ay?beleni
(36.6500°N, 30.3000°E)
Time: 01:04:40
(UTC+00:00)

USA 234 - Pass Details

Date: 09 April 2020
Orbit: 1102 x 1106 km, 123.0° (Epoch: 14 May)

Event Time Altitude Azimuth Distance (km) Brightness Sun altitude
Rises 18:06:42 0° 48° (NE) 3,923 5.9 -19.5°
Reaches altitude 10° 18:09:16 10° 54° (NE) 2,962 5.3 -20.0°
Maximum altitude 18:15:37 52° 129° (SE) 1,341 3.3 -21.1°
Drops below altitude 10° 18:21:57 10° 205° (SSW) 2,952 5.5 -22.2°
Sets 18:24:30 0° 210° (SSW) 3,908 6.2 -22.7°
